User: anonymous   Login
Location: Waldport
(44.4270°N, 124.0680°W)
Time: 16:44:35
(UTC-07:00)
Language:

Cosmos 1023 Rocket - Orbit

View from above orbital plane
View from above orbital plane
View from above satellite
View from above satellite

Ground track
Ground track

The orbit data is extracted from the following two-line orbital elements,

1 10962U 78063B   16152.53498476  .00000100  00000-0  39178-4 0  9996
2 10962  74.0792 203.4383 0025686 207.1146 152.8671 14.41026083990894
Epoch (UTC): 31 May 2016 12:50:22
Eccentricity: 0.0025686
inclination: 74.0792°
perigee height: 737 km
apogee height: 773 km
right ascension of ascending node: 203.4383°
argument of perigee: 207.1146°
revolutions per day: 14.41026083
mean anomaly at epoch: 152.8671°
orbit number at epoch: 99089

The dashed part of the orbit path shows where the satellite is in the earth's shadow,  

DLR